Noatak, AK

5:16 AM AKST on February 12, 2016 (GMT -0900)
Noatak

Weather History for PAWN - September, 2012

Change the Weather History Date:

Friday, September 21, 2012

  Actual Average Record
Temperature  
Mean Temperature 38 °F -  
Max Temperature 42 °F 40 °F 73 °F (2007)
Min Temperature 33 °F 26 °F 17 °F (2015)
Degree Days  
Heating Degree Days 28    
Moisture  
Dew Point 32 °F    
Average Humidity 84    
Maximum Humidity 100    
Minimum Humidity 61    
Precipitation  
Precipitation 0.00 in - - ()
Sea Level Pressure  
Sea Level Pressure 29.81 in    
Wind  
Wind Speed 3 mph (WSW)    
Max Wind Speed 8 mph    
Max Gust Speed -    
Visibility 10 miles    
Events      
Averages and records for this station are not official NWS values.
T = Trace of Precipitation, MM = Missing Value Source: NWS Daily Summary

Daily Weather History Graph

Daily Weather History Graph

Search for Another Location

Airport or City:

Trip Planner

Search our weather history database for the weather conditions in past years. The results will help you decide how hot, cold, wet, or windy it might be!

Date:

Astronomy

Sep. 21, 2012 Rise Set
Actual Time 8:32 AM AKDT 8:54 PM AKDT
Civil Twilight 7:37 AM AKDT 9:49 PM AKDT
Nautical Twilight 6:28 AM AKDT 10:58 PM AKDT
Astronomical Twilight 5:01 AM AKDT 12:22 AM AKDT
Moon 6:46 PM AKDT (9/21) 9:30 PM AKDT (9/21)
Length of Visible Light 14h 12m
Length of Day
12h 22m
Waxing Crescent, 39% of the Moon is Illuminated
Sep 21
Waxing Crescent
Sep 22
First Quarter
Sep 29
Full
Oct 7
Last Quarter
Oct 15
New

Hourly Weather History & Observations

Time (AKDT) Temp. Windchill Dew Point Humidity Pressure Visibility Wind Dir Wind Speed Gust Speed Precip Events Conditions
12:16 AM 37.4 °F 34.9 °F 35.6 °F 93% 29.71 in 10.0 mi SSW 3.5 mph - N/A   Overcast
12:36 AM 37.4 °F 34.9 °F 35.6 °F 93% 29.72 in 10.0 mi SSW 3.5 mph - N/A   Overcast
12:56 AM 37.4 °F 34.9 °F 35.6 °F 93% 29.72 in 10.0 mi South 3.5 mph - N/A   Overcast
1:16 AM 37.4 °F 33.8 °F 35.6 °F 93% 29.72 in 10.0 mi South 4.6 mph - N/A   Overcast
1:36 AM 37.4 °F 33.8 °F 35.6 °F 93% 29.73 in 10.0 mi SSW 4.6 mph - N/A   Overcast
1:56 AM 35.6 °F 32.8 °F 33.8 °F 93% 29.72 in 10.0 mi SW 3.5 mph - N/A   Overcast
2:16 AM 35.6 °F - 33.8 °F 93% 29.73 in 10.0 mi Calm Calm - N/A   Overcast
2:36 AM 35.6 °F 32.8 °F 32.0 °F 87% 29.73 in 10.0 mi SW 3.5 mph - N/A   Overcast
2:56 AM 35.6 °F 31.7 °F 33.8 °F 93% 29.73 in 10.0 mi WSW 4.6 mph - N/A   Overcast
3:16 AM 35.6 °F 32.8 °F 32.0 °F 87% 29.73 in 10.0 mi WSW 3.5 mph - N/A   Overcast
3:36 AM 33.8 °F 30.8 °F 33.8 °F 100% 29.73 in 2.5 mi SSW 3.5 mph - N/A   Overcast
3:56 AM 35.6 °F 32.8 °F 33.8 °F 93% 29.73 in 10.0 mi SW 3.5 mph - N/A   Overcast
4:36 AM 35.6 °F - 33.8 °F 93% 29.73 in 10.0 mi Calm Calm - N/A   Overcast
4:56 AM 35.6 °F - 32.0 °F 87% 29.73 in 4.0 mi Calm Calm - N/A   Overcast
5:16 AM 33.8 °F 30.8 °F 32.0 °F 93% 29.73 in 10.0 mi WNW 3.5 mph - N/A   Overcast
5:36 AM 33.8 °F - 32.0 °F 93% 29.74 in 10.0 mi Calm Calm - N/A   Overcast
5:56 AM 33.8 °F - 32.0 °F 93% 29.74 in 10.0 mi Calm Calm - N/A   Overcast
6:16 AM 35.6 °F - 33.8 °F 93% 29.74 in 10.0 mi Calm Calm - N/A   Overcast
6:36 AM 33.8 °F - 33.8 °F 100% 29.74 in 9.0 mi Calm Calm - N/A   Overcast
6:56 AM 33.8 °F - 32.0 °F 93% 29.75 in 10.0 mi Calm Calm - N/A   Overcast
7:16 AM 33.8 °F - 32.0 °F 93% 29.75 in 10.0 mi Calm Calm - N/A   Overcast
7:36 AM 33.8 °F 30.8 °F 32.0 °F 93% 29.76 in 10.0 mi WSW 3.5 mph - N/A   Overcast
7:56 AM 33.8 °F - 32.0 °F 93% 29.76 in 10.0 mi Calm Calm - N/A   Overcast
8:16 AM 35.6 °F - 33.8 °F 93% 29.76 in 10.0 mi Calm Calm - N/A   Overcast
8:36 AM 35.6 °F - 33.8 °F 93% 29.77 in 10.0 mi Calm Calm - N/A   Overcast
8:56 AM 35.6 °F - 33.8 °F 93% 29.77 in 10.0 mi Calm Calm - N/A   Overcast
9:16 AM 35.6 °F 32.8 °F 33.8 °F 93% 29.78 in 10.0 mi SSW 3.5 mph - N/A   Overcast
9:36 AM 35.6 °F 32.8 °F 32.0 °F 87% 29.78 in 10.0 mi SSW 3.5 mph - N/A   Overcast
9:56 AM 33.8 °F 30.8 °F 32.0 °F 93% 29.79 in 10.0 mi SW 3.5 mph - N/A   Overcast
10:16 AM 35.6 °F - 32.0 °F 87% 29.79 in 10.0 mi Calm Calm - N/A   Overcast
10:36 AM 35.6 °F - 33.8 °F 93% 29.80 in 10.0 mi Calm Calm - N/A   Overcast
10:56 AM 35.6 °F - 33.8 °F 93% 29.80 in 10.0 mi Calm Calm - N/A   Overcast
11:16 AM 35.6 °F - 33.8 °F 93% 29.81 in 10.0 mi Calm Calm - N/A   Overcast
11:36 AM 35.6 °F - 33.8 °F 93% 29.81 in 10.0 mi Calm Calm - N/A   Overcast
11:56 AM 37.4 °F 34.9 °F 33.8 °F 87% 29.83 in 10.0 mi SSW 3.5 mph - N/A   Mostly Cloudy
12:16 PM 37.4 °F - 33.8 °F 87% 29.83 in 10.0 mi Calm Calm - N/A   Overcast
12:36 PM 37.4 °F 34.9 °F 33.8 °F 87% 29.84 in 10.0 mi SSW 3.5 mph - N/A   Overcast
12:56 PM 39.2 °F - 33.8 °F 81% 29.84 in 10.0 mi Calm Calm - N/A   Overcast
1:16 PM 39.2 °F 35.9 °F 33.8 °F 81% 29.85 in 10.0 mi SSW 4.6 mph - N/A   Overcast
1:36 PM 39.2 °F 35.0 °F 33.8 °F 81% 29.86 in 10.0 mi South 5.8 mph - N/A   Overcast
1:56 PM 39.2 °F 34.2 °F 33.8 °F 81% 29.86 in 10.0 mi South 6.9 mph - N/A   Overcast
2:16 PM 39.2 °F 34.2 °F 33.8 °F 81% 29.86 in 10.0 mi SSE 6.9 mph - N/A   Overcast
2:36 PM 39.2 °F 35.9 °F 33.8 °F 81% 29.86 in 10.0 mi SSE 4.6 mph - N/A   Overcast
2:56 PM 39.2 °F 37.0 °F 35.6 °F 87% 29.87 in 10.0 mi WSW 3.5 mph - N/A   Overcast
3:16 PM 41.0 °F 37.1 °F 32.0 °F 70% 29.87 in 10.0 mi SW 5.8 mph - N/A   Overcast
3:36 PM 41.0 °F 39.0 °F 32.0 °F 70% 29.86 in 10.0 mi West 3.5 mph - N/A   Overcast
3:56 PM 41.0 °F 39.0 °F 32.0 °F 70% 29.86 in 10.0 mi SW 3.5 mph - N/A   Overcast
4:16 PM 41.0 °F 39.0 °F 32.0 °F 70% 29.86 in 10.0 mi SW 3.5 mph - N/A   Overcast
4:36 PM 41.0 °F 39.0 °F 30.2 °F 65% 29.86 in 10.0 mi WSW 3.5 mph - N/A   Overcast
4:56 PM 42.8 °F 41.1 °F 30.2 °F 61% 29.85 in 10.0 mi West 3.5 mph - N/A   Overcast
5:16 PM 42.8 °F - 30.2 °F 61% 29.85 in 10.0 mi Calm Calm - N/A   Overcast
5:36 PM 42.8 °F 41.1 °F 30.2 °F 61% 29.86 in 10.0 mi SSW 3.5 mph - N/A   Overcast
5:56 PM 42.8 °F 40.1 °F 30.2 °F 61% 29.86 in 10.0 mi WSW 4.6 mph - N/A   Overcast
6:16 PM 42.8 °F 39.3 °F 30.2 °F 61% 29.86 in 10.0 mi WSW 5.8 mph - N/A   Mostly Cloudy
6:36 PM 41.0 °F 38.0 °F 30.2 °F 65% 29.86 in 10.0 mi SW 4.6 mph - N/A   Mostly Cloudy
6:56 PM 41.0 °F 39.0 °F 30.2 °F 65% 29.87 in 10.0 mi WSW 3.5 mph - N/A   Mostly Cloudy
7:16 PM 39.2 °F 35.9 °F 30.2 °F 70% 29.87 in 10.0 mi West 4.6 mph - N/A   Scattered Clouds
7:36 PM 37.4 °F 33.8 °F 30.2 °F 75% 29.87 in 10.0 mi West 4.6 mph - N/A   Scattered Clouds
7:56 PM 35.6 °F 29.9 °F 30.2 °F 81% 29.87 in 8.0 mi West 6.9 mph - N/A   Partly Cloudy
8:16 PM 35.6 °F 30.7 °F 28.4 °F 75% 29.87 in 10.0 mi WNW 5.8 mph - N/A   Scattered Clouds
8:36 PM 33.8 °F 28.6 °F 28.4 °F 81% 29.87 in 10.0 mi WNW 5.8 mph - N/A   Mostly Cloudy
8:56 PM 33.8 °F 27.0 °F 28.4 °F 81% 29.86 in 10.0 mi WNW 8.1 mph - N/A   Overcast
9:16 PM 33.8 °F 28.6 °F 28.4 °F 81% 29.86 in 10.0 mi WNW 5.8 mph - N/A   Overcast
9:36 PM 33.8 °F 28.6 °F 28.4 °F 81% 29.86 in 10.0 mi NNW 5.8 mph - N/A   Overcast
9:56 PM 33.8 °F 27.7 °F 28.4 °F 81% 29.86 in 10.0 mi NNW 6.9 mph - N/A   Overcast
10:16 PM 33.8 °F 27.7 °F 28.4 °F 81% 29.85 in 10.0 mi NNW 6.9 mph - N/A   Overcast
10:36 PM 33.8 °F 28.6 °F 28.4 °F 81% 29.85 in 10.0 mi NNW 5.8 mph - N/A   Unknown
10:56 PM 33.8 °F 28.6 °F 30.2 °F 87% 29.85 in 10.0 mi NNW 5.8 mph - N/A   Overcast
11:16 PM 35.6 °F 29.9 °F 30.2 °F 81% 29.85 in 10.0 mi NNW 6.9 mph - N/A   Overcast
11:36 PM 33.8 °F 27.7 °F 30.2 °F 87% 29.85 in 10.0 mi NNW 6.9 mph - N/A   Overcast
11:56 PM 33.8 °F 28.6 °F 30.2 °F 87% 29.85 in 10.0 mi North 5.8 mph - N/A   Overcast